SCP
-0 -0 -0 0 0 -0 0 -0 0 0 0 0 0 0 0 0 0 0 0 0 0 0 -0 -0 0 0 0 0 0 0 0 0 -0 -0 -0 -0 -0 -0 -0 -0 0 -0 -0 -0 -0 -0 -0 -0 0
-0 0 0 0 0 0 -0 -0 -0 0 0 0 0 0 0 0 0 0 0 0 0 0 -0 -0 0 0 0 0 0 0 0 -0 -0 -0 0 -0 -0 -0 -0 -0 -0 -0 -0 -0 0 -0 -0 -0 0
0 0 0 0 0 0 0 -0 0 0 -0 0 0 0 0 0 0 0 0 0 0 0 0 0 0 0 0 0 0 0 0 0 -0 -0 -0 -0 -0 -0 -0 -0 -0 0 -0 -0 -0 -0 0 0 0
0 0 0 0 0 0 0 -0 -0 0 0 0 0 0 0 0 0 0 0 -0 0 0 0 0 0 0 0 0 0 0 0 0 -0 -0 -0 -0 -0 -0 0 0 0 0 0 0 0 0 0 0 0
0 0 0 0 0 0 0 0 0 -0 0 0 0 0 0 0 0 0 0 0 0 -0 0 0 0 0 0 0 0 0 0 0 -0 -0 -0 -0 -0 0 -0 0 0 0 0 0 0 0 0 0 0
0 0 0 0 0 0 0 0 0 0 0 0 0 0 0 0 0 0 0 0 0 0 0 0 0 0 0 0 0 0 0 0 0 -0 -0 -0 0 0 0 0 0 0 0 0 0 0 0 0 -0
0 0 0 0 0 0 0 0 0 0 0 0 0 0 0 -0 0 0 0 0 0 0 0 0 0 0 0 0 0 0 0 0 0 0 0 0 0 0 0 0 0 0 0 0 0 0 0 0 0
0 0 0 0 0 0 0 0 0 0 0 0 0 0 0 0 0 0 0 0 0 0 0 0 0 0 0 0 0 0 0 0 0 0 0 0 0 0 0 0 0 0 0 0 0 0 0 0 0
0 0 0 0 0 0 0 0 0 0 0 0 0 0 0 0 0 0 0 0 0 0 0 0 0 0 0 0 0 0 0 0 0 0 0 0 0 0 0 0 0 0 0 0 0 0 0 0 0
0 0 0 0 0 0 0 0 0 0 0 0 0 0 0 0 0 0 0 0 0 0 0 0 0 0 0 0 0 0 0 0 0 0 0 0 0 0 0 0 0 0 0 0 0 0 0 0 0
0 0 0 0 0 0 0 0 0 0 0 0 0 0 0 0 0 0 0 0 0 0 0 0 0 0 0 0 0 0 0 0 0 0 0 0 0 0 0 0 0 0 0 0 0 0 0 0 0
0 0 0 0 0 0 0 0 0 0 0 0 0 0 0 0 0 0 -0 -0 0 0 0 0 0 0 0 0 0 0 0 0 0 0 0 0 0 0 0 0 0 0 0 0 0 0 0 0 0
0 0 0 0 0 0 0 0 0 0 0 0 0 0 0 0 0 0 0 -0 -0 -0 0 0 0 0 0 0 0 0 0 0 0 0 0 0 0 0 0 0 0 0 0 0 0 0 0 0 0
0 0 0 0 0 0 0 0 0 0 0 0 0 0 0 0 0 0 0 0 0 0 0 0 0 0 0 0 0 0 0 0 0 0 0 0 0 0 0 0 0 0 0 0 0 0 0 0 0
0 0 0 0 0 0 0 0 0 0 0 0 0 0 0 0 0 0 0 0 0 0 0 0 0 0 0 0 0 0 0 0 0 0 0 0 0 0 0 0 0 0 0 0 0 0 0 0 0
0 0 0 0 0 0 0 0 0 0 0 0 0 0 0 0 0 0 0 0 0 0 0 0 0 0 0 0 0 0 0 0 0 0 0 0 0 0 0 0 0 0 0 0 0 0 0 0 0
0 0 0 0 0 0 0 0 0 0 0 0 0 0 0 0 0 0 0 0 0 0 0 0 0 0 0 0 0 0 0 0 0 0 0 0 0 0 0 0 0 0 0 0 0 0 0 0 0
0 0 0 0 0 0 0 0 0 0 0 0 0 0 0 0 0 0 0 0 0 0 0 0 0 0 0 0 0 0 0 0 0 0 0 0 0 0 0 0 0 0 0 0 0 0 0 0 0
0 0 0 0 0 0 0 0 0 0 0 0 0 0 0 0 0 0 0 0 0 0 0 0 0 0 0 0 0 0 0 0 0 0 0 0 0 0 0 0 0 0 0 0 0 0 0 0 0
0 0 0 0 0 0 0 0 0 0 0 0 0 0 0 0 0 0 0 0 0 0 0 0 0 0 0 0 0 0 0 0 0 0 0 0 0 0 0 0 0 0 0 0 0 0 0 0 0
0 0 0 0 0 0 0 -0 0 0 0 0 0 0 0 0 0 0 0 0 0 0 0 0 0 0 0 0 0 0 0 0 0 0 0 0 0 0 0 0 0 0 0 0 0 0 0 0 0
0 0 0 0 0 0 0 -0 0 0 0 0 0 0 0 0 0 0 0 0 0 0 0 0 0 0 0 0 0 0 0 0 0 0 0 0 0 0 0 0 0 0 0 0 0 0 0 0 0
0 0 0 0 0 0 -0 0 -0 -0 0 0 0 0 0 0 0 0 0 0 0 0 0 0 0 0 0 0 0 0 0 0 0 0 0 0 0 0 0 0 0 0 0 0 0 0 0 0 0
0 0 0 0 0 0 0 0 -0 -0 -0 0 0 0 0 0 0 0 0 0 0 0 0 0 0 0 0 0 0 0 0 0 0 0 0 0 0 0 0 0 0 0 0 0 0 0 0 0 0
0 0 0 0 0 0 0 -0 0 0 -0 0 0 0 0 0 0 0 0 0 0 0 0 0 0 0 0 0 0 0 0 0 0 0 0 0 0 0 0 0 0 0 0 0 0 0 0 0 0
0 0 0 0 0 0 0 -0 -0 -0 0 0 0 0 0 0 0 0 0 0 0 0 0 0 0 0 0 0 0 0 0 0 0 0 0 0 0 0 0 0 0 0 0 0 0 0 0 0 0
0 0 0 0 0 0 0 0 0 0 0 0 0 0 0 0 0 0 0 0 0 0 0 0 0 0 0 0 0 0 0 0 0 0 0 0 0 0 0 0 0 0 0 0 0 0 0 0 0
0 0 0 0 0 0 0 -0 -0 0 0 0 0 0 0 0 0 0 0 0 0 0 0 0 0 0 0 0 0 0 0 0 0 0 0 0 0 0 0 0 0 0 0 0 0 0 0 0 0
0 0 0 0 0 0 0 0 0 0 0 0 0 0 0 0 0 0 0 0 0 0 0 0 0 0 0 0 0 0 0 0 0 0 0 0 0 0 0 0 0 0 0 0 0 0 0 0 0
0 0 0 0 0 0 0 0 0 -0 0 0 0 0 0 -0 -0 -0 0 0 0 0 0 0 0 0 0 0 0 0 0 0 0 0 0 0 0 0 0 0 0 0 0 0 0 0 0 0 0
Wind_Speed_500mb
40 28 3 3 6 4 7 9 1 11 9 5 11 4 2 4 6 6 22 31 39 38 35 28 20 16 18 25 27 24 21 14 14 12 10 10 13 13 11 13 13 19 19 21 19 22 22 21 21
37 20 3 1 5 4 9 8 13 8 8 16 12 6 3 6 4 6 33 34 40 37 32 26 19 15 16 22 26 23 15 11 10 10 11 13 12 11 12 14 16 17 20 16 17 14 18 19 20
32 14 1 2 2 6 9 12 13 11 16 4 5 3 2 4 3 25 28 36 40 36 31 26 20 16 16 20 24 23 21 12 6 6 6 11 12 12 10 14 16 17 13 15 15 17 14 19 20
28 5 6 1 12 6 6 14 11 18 10 6 2 7 4 7 13 19 33 35 39 36 28 21 18 16 16 18 25 26 24 18 9 3 5 5 11 14 12 11 14 16 8 9 12 15 15 16 18
16 4 4 8 8 4 2 10 19 14 6 5 6 7 8 9 21 21 27 38 39 37 32 24 16 11 12 11 13 22 25 23 14 7 2 5 7 9 10 11 9 13 11 7 6 10 11 11 12
4 3 6 8 7 5 8 11 12 6 4 5 3 8 7 15 23 21 29 29 34 36 33 26 21 18 13 11 12 13 21 23 21 16 11 7 11 10 9 8 8 9 12 9 4 3 4 4 5
2 3 5 11 10 8 8 14 10 8 8 5 3 3 6 18 22 23 33 31 31 32 30 27 22 18 17 16 15 16 22 25 24 26 19 14 14 13 13 12 11 10 9 10 9 7 6 3 2
5 3 9 6 14 9 12 15 6 10 7 5 11 2 8 16 24 27 32 33 34 36 34 30 26 22 20 17 14 14 14 19 20 25 22 19 15 17 18 18 15 12 13 14 13 13 13 11 10
8 7 12 13 14 11 16 15 9 10 8 8 10 4 6 18 25 31 38 38 37 36 36 35 33 29 25 21 18 18 18 17 17 23 22 18 14 19 20 18 21 19 20 19 19 19 20 19 18
8 9 14 6 11 12 19 17 19 12 14 13 10 13 11 18 23 29 36 39 39 37 37 36 36 34 31 28 25 23 22 22 20 23 23 22 21 22 26 24 21 22 22 23 24 25 26 26 26
5 9 6 6 5 5 14 14 11 14 14 19 20 18 17 21 26 25 27 28 25 27 31 32 32 33 34 33 31 30 29 27 26 25 25 24 25 25 27 28 27 25 24 23 24 28 29 30 31
7 4 3 6 6 5 10 8 10 17 8 11 18 17 20 24 25 24 26 26 25 24 22 25 29 32 32 33 34 35 35 33 33 30 28 30 29 29 30 30 31 32 31 30 30 28 30 34 39
8 5 6 1 4 3 4 6 7 18 16 11 14 21 25 25 25 22 22 24 26 29 26 24 25 27 30 34 35 37 38 39 38 37 35 34 35 35 34 34 35 36 36 36 37 36 35 37 40
2 5 2 1 6 5 7 5 3 12 21 19 18 15 21 26 26 27 28 27 26 25 27 28 31 29 30 33 35 36 38 39 40 42 40 38 39 39 39 39 40 41 40 39 39 41 43 44 45
6 5 2 11 6 5 3 16 28 30 13 15 27 26 29 31 32 37 33 33 30 31 34 37 37 39 41 40 40 40 41 40 42 42 42 43 43 43 43 43 43 43 45 44 45 46 47 50 51
6 2 8 10 10 5 11 28 7 4 24 35 33 28 28 35 40 41 42 43 44 48 50 49 50 49 49 49 48 46 45 45 45 45 46 45 45 46 47 49 48 45 47 48 50 51 52 53 53
7 10 21 10 7 4 19 10 9 6 7 19 17 20 27 34 45 52 53 52 50 51 47 46 45 53 59 56 52 54 54 51 49 49 50 47 46 47 50 52 52 51 52 52 53 55 56 56 55
16 14 8 12 4 3 15 23 30 28 25 33 41 46 45 48 65 54 51 48 44 38 42 44 44 45 44 54 61 61 59 56 52 52 54 52 50 49 49 51 54 55 55 56 59 59 57 60 58
11 11 14 4 4 6 19 28 32 48 37 44 49 53 58 63 70 61 63 58 58 56 58 49 48 47 47 46 55 65 67 60 56 52 50 50 50 49 50 53 55 57 57 56 59 62 62 65 66
8 11 9 11 6 5 23 34 36 53 56 56 61 66 61 55 56 55 57 58 55 51 50 57 61 56 53 51 46 46 51 53 49 47 45 45 46 46 48 50 52 56 55 54 57 62 64 64 65
24 23 15 14 8 18 18 31 32 21 27 30 47 52 45 45 48 44 45 50 55 55 51 51 52 55 57 59 57 49 45 43 41 40 42 45 46 45 44 45 47 50 53 54 52 55 58 60 62
21 12 16 16 9 10 9 14 13 20 28 32 39 34 28 28 39 42 38 32 34 43 47 52 53 55 54 58 65 58 48 41 39 40 43 45 48 46 45 46 47 51 53 58 57 55 57 56 57
8 12 13 13 12 13 10 11 6 8 19 25 11 0 10 13 15 21 22 25 30 42 39 38 39 42 45 48 57 58 54 50 47 47 47 50 53 56 54 53 52 53 55 56 58 60 61 62 63
18 16 10 5 5 12 14 14 7 12 9 2 6 8 10 23 12 5 9 10 14 19 22 23 27 31 30 31 37 44 47 47 47 48 47 45 46 47 49 47 48 51 54 58 58 59 61 64 66
21 18 3 6 9 11 5 14 13 22 18 14 15 15 18 18 11 2 8 12 14 17 18 18 15 14 14 17 22 26 30 30 29 28 28 29 32 34 38 40 42 46 49 51 53 55 57 61 65
30 19 8 11 9 4 6 14 7 16 14 15 14 23 25 13 17 11 12 16 19 19 18 17 15 12 12 12 12 13 14 17 20 23 26 29 33 36 39 42 44 45 46 46 48 53 61 61 64
25 18 4 4 2 6 9 9 23 19 17 17 15 15 12 20 24 23 22 22 22 20 18 15 14 12 11 11 11 11 12 14 17 21 25 29 33 37 40 42 46 48 51 50 49 53 57 57 59
13 21 9 7 9 11 10 10 15 9 13 1 6 10 7 19 29 32 30 27 22 20 18 15 12 9 8 7 8 10 13 16 19 22 25 30 33 37 40 41 43 46 48 50 53 55 55 57 60
14 13 10 8 12 5 8 4 7 11 4 5 3 10 14 14 31 37 34 29 24 22 18 11 5 2 3 4 6 9 13 17 20 23 26 29 33 35 38 40 41 42 43 45 49 51 52 53 57
30 20 28 10 9 13 14 17 10 13 16 9 21 14 19 15 24 39 40 35 32 28 21 13 3 5 9 12 14 17 19 20 21 23 26 29 32 34 36 37 39 41 42 42 44 47 48 49 48
Wind_Direction_500mb
355 358 28 175 224 109 116 144 52 148 170 137 131 204 348 19 347 36 155 162 159 157 160 159 159 155 159 163 154 160 170 172 176 168 171 168 149 150 137 144 123 104 105 101 93 90 83 81 85
353 360 72 150 256 162 109 147 177 135 97 125 123 132 170 77 63 135 151 159 163 161 159 159 154 152 155 166 166 163 163 166 140 169 169 171 157 152 141 163 136 122 105 97 107 101 76 80 82
349 360 7 60 78 91 117 180 147 140 147 146 144 70 77 81 121 148 165 164 167 168 166 164 160 158 156 167 170 169 161 169 147 141 161 161 167 162 147 158 135 124 105 98 96 104 74 80 82
348 5 60 23 90 60 48 150 150 146 198 241 196 129 89 140 138 156 163 168 170 175 174 169 171 170 167 169 176 175 178 167 171 135 153 176 166 161 164 151 144 137 135 110 97 100 88 88 80
355 21 88 99 85 73 73 135 156 160 157 168 197 128 122 152 152 149 168 171 176 178 183 180 178 183 180 179 186 189 180 166 183 195 201 168 182 167 159 161 162 153 152 150 119 96 84 83 77
352 317 160 147 113 94 120 155 167 174 159 167 222 142 120 160 159 165 171 180 184 183 187 192 188 186 187 189 183 191 199 198 174 191 218 207 169 181 178 185 203 188 184 190 176 130 97 71 65
67 327 109 136 133 148 143 160 184 179 168 164 184 175 139 172 170 177 173 177 187 193 197 200 202 204 196 197 207 203 200 209 206 192 209 215 198 212 212 204 216 238 220 219 226 215 222 235 272
136 191 154 170 171 151 158 172 179 185 169 192 175 153 142 182 187 179 182 182 186 193 201 206 210 211 209 214 215 215 216 220 220 209 218 229 228 224 232 223 221 233 250 241 246 252 249 247 252
151 209 192 176 178 157 163 182 180 182 160 181 198 189 177 187 185 185 184 188 193 198 204 208 211 213 215 220 225 226 223 225 227 221 233 243 236 240 243 254 240 238 242 249 251 254 261 263 263
214 222 207 171 179 171 174 189 165 178 188 203 200 214 213 190 192 196 196 197 201 204 205 211 214 215 218 222 227 231 234 235 231 224 232 242 244 245 244 253 265 258 254 249 251 254 257 264 269
186 232 176 164 187 157 160 180 179 197 204 212 213 197 211 197 196 204 209 214 217 218 218 219 220 220 223 227 231 235 239 241 243 240 238 244 248 252 252 256 264 266 268 270 269 268 266 262 264
197 194 179 129 146 178 173 163 198 213 207 209 210 198 210 202 206 209 213 216 218 222 226 231 229 228 231 234 236 241 243 245 247 249 248 249 252 255 256 259 263 264 267 271 268 266 273 277 270
214 155 193 141 178 156 186 202 243 241 223 213 209 212 208 207 208 213 223 226 227 229 231 235 239 238 240 242 243 245 249 251 252 251 251 252 255 257 258 260 262 265 267 269 271 272 272 274 273
131 179 151 256 226 254 249 223 241 237 223 220 214 207 213 219 223 227 227 233 241 246 248 246 247 246 245 247 250 253 255 257 257 256 257 257 257 260 260 261 262 263 266 269 273 273 274 274 274
110 163 170 229 223 247 205 239 239 246 240 227 237 236 235 241 237 236 238 241 246 253 257 257 256 255 255 255 253 253 257 260 262 262 260 259 259 260 261 263 264 266 268 268 268 271 273 272 272
167 296 233 158 200 219 198 251 190 210 238 249 247 248 253 246 245 247 243 245 250 257 259 261 260 259 259 259 259 257 255 257 260 262 262 259 261 262 263 264 266 268 268 269 269 270 272 274 275
201 223 223 250 189 180 210 244 222 88 222 251 249 251 261 265 256 253 253 254 258 258 256 257 257 256 257 258 260 260 256 254 256 260 262 262 261 262 264 268 269 268 269 270 270 271 271 272 273
194 211 224 227 102 220 238 248 270 269 267 270 273 272 269 268 262 261 262 261 258 257 249 248 250 255 260 253 251 253 255 258 256 255 258 262 264 263 264 267 270 269 268 269 270 270 270 273 274
166 188 209 227 20 317 263 270 270 273 275 273 269 264 264 261 264 266 263 263 263 258 252 251 249 251 253 257 254 251 254 259 259 256 257 262 267 270 268 267 268 269 270 272 273 274 273 274 276
160 158 204 268 282 267 283 276 270 270 267 263 265 264 260 266 267 266 266 261 257 256 254 248 249 247 249 252 257 256 256 257 258 257 260 263 265 267 267 270 271 273 274 272 272 274 275 276 274
218 229 227 261 280 266 290 270 256 254 253 252 255 260 263 261 268 272 270 265 256 252 253 250 247 246 250 250 248 247 246 247 248 253 261 267 272 273 270 270 270 272 273 274 273 272 273 273 276
218 213 223 245 280 267 359 294 247 275 279 258 260 263 271 274 272 274 270 265 251 243 243 246 247 244 246 248 240 237 242 248 254 256 261 266 269 272 272 273 273 272 272 272 274 274 273 272 270
208 186 199 222 243 294 203 246 275 250 261 267 287 332 57 1 274 252 266 257 242 231 242 238 234 236 243 248 240 237 241 244 248 255 260 264 269 272 274 273 272 271 271 272 272 273 272 273 272
147 138 127 182 238 251 224 226 205 217 214 107 124 122 348 346 340 267 224 217 206 200 207 213 217 229 238 240 237 237 240 245 253 261 267 271 275 277 278 277 275 274 273 273 274 274 273 273 273
179 168 155 218 209 256 123 216 288 254 242 257 302 308 313 307 298 258 148 150 156 162 169 176 182 196 204 213 221 228 235 242 251 261 269 273 277 280 283 283 281 279 277 274 274 274 272 273 273
191 186 214 234 218 295 158 238 256 286 306 268 278 288 289 274 235 220 175 165 164 164 166 167 167 175 177 183 192 205 221 239 255 266 275 281 285 287 287 287 287 285 282 279 277 272 267 268 272
181 212 108 93 126 272 218 241 282 274 276 265 280 298 278 234 217 211 201 188 185 180 178 177 182 188 195 206 217 231 246 258 270 278 284 287 288 290 290 291 290 289 289 287 280 275 278 276 274
194 160 185 220 227 239 229 249 236 176 157 89 67 19 279 232 222 214 209 204 194 184 177 174 175 187 201 216 240 258 268 273 279 285 289 293 295 298 298 297 295 292 289 287 285 281 274 271 271
170 185 209 222 220 268 306 248 212 251 261 115 37 15 357 277 228 217 213 209 199 189 177 165 162 199 250 263 273 286 294 297 301 304 306 308 308 305 302 301 299 297 294 291 286 283 282 273 268
216 217 205 207 190 236 271 251 172 189 158 309 277 254 321 301 237 216 215 211 206 198 186 171 190 274 284 289 292 294 297 300 302 305 309 311 310 310 310 309 307 304 300 296 290 286 281 275 277
Wind_Speed_850mb
40 28 3 3 6 4 7 9 1 11 9 5 11 4 2 4 6 6 22 31 39 38 35 28 20 16 18 25 27 24 21 14 14 12 10 10 13 13 11 13 13 19 19 21 19 22 22 21 21
37 20 3 1 5 4 9 8 13 8 8 16 12 6 3 6 4 6 33 34 40 37 32 26 19 15 16 22 26 23 15 11 10 10 11 13 12 11 12 14 16 17 20 16 17 14 18 19 20
32 14 1 2 2 6 9 12 13 11 16 4 5 3 2 4 3 25 28 36 40 36 31 26 20 16 16 20 24 23 21 12 6 6 6 11 12 12 10 14 16 17 13 15 15 17 14 19 20
28 5 6 1 12 6 6 14 11 18 10 6 2 7 4 7 13 19 33 35 39 36 28 21 18 16 16 18 25 26 24 18 9 3 5 5 11 14 12 11 14 16 8 9 12 15 15 16 18
16 4 4 8 8 4 2 10 19 14 6 5 6 7 8 9 21 21 27 38 39 37 32 24 16 11 12 11 13 22 25 23 14 7 2 5 7 9 10 11 9 13 11 7 6 10 11 11 12
4 3 6 8 7 5 8 11 12 6 4 5 3 8 7 15 23 21 29 29 34 36 33 26 21 18 13 11 12 13 21 23 21 16 11 7 11 10 9 8 8 9 12 9 4 3 4 4 5
2 3 5 11 10 8 8 14 10 8 8 5 3 3 6 18 22 23 33 31 31 32 30 27 22 18 17 16 15 16 22 25 24 26 19 14 14 13 13 12 11 10 9 10 9 7 6 3 2
5 3 9 6 14 9 12 15 6 10 7 5 11 2 8 16 24 27 32 33 34 36 34 30 26 22 20 17 14 14 14 19 20 25 22 19 15 17 18 18 15 12 13 14 13 13 13 11 10
8 7 12 13 14 11 16 15 9 10 8 8 10 4 6 18 25 31 38 38 37 36 36 35 33 29 25 21 18 18 18 17 17 23 22 18 14 19 20 18 21 19 20 19 19 19 20 19 18
8 9 14 6 11 12 19 17 19 12 14 13 10 13 11 18 23 29 36 39 39 37 37 36 36 34 31 28 25 23 22 22 20 23 23 22 21 22 26 24 21 22 22 23 24 25 26 26 26
5 9 6 6 5 5 14 14 11 14 14 19 20 18 17 21 26 25 27 28 25 27 31 32 32 33 34 33 31 30 29 27 26 25 25 24 25 25 27 28 27 25 24 23 24 28 29 30 31
7 4 3 6 6 5 10 8 10 17 8 11 18 17 20 24 25 24 26 26 25 24 22 25 29 32 32 33 34 35 35 33 33 30 28 30 29 29 30 30 31 32 31 30 30 28 30 34 39
8 5 6 1 4 3 4 6 7 18 16 11 14 21 25 25 25 22 22 24 26 29 26 24 25 27 30 34 35 37 38 39 38 37 35 34 35 35 34 34 35 36 36 36 37 36 35 37 40
2 5 2 1 6 5 7 5 3 12 21 19 18 15 21 26 26 27 28 27 26 25 27 28 31 29 30 33 35 36 38 39 40 42 40 38 39 39 39 39 40 41 40 39 39 41 43 44 45
6 5 2 11 6 5 3 16 28 30 13 15 27 26 29 31 32 37 33 33 30 31 34 37 37 39 41 40 40 40 41 40 42 42 42 43 43 43 43 43 43 43 45 44 45 46 47 50 51
6 2 8 10 10 5 11 28 7 4 24 35 33 28 28 35 40 41 42 43 44 48 50 49 50 49 49 49 48 46 45 45 45 45 46 45 45 46 47 49 48 45 47 48 50 51 52 53 53
7 10 21 10 7 4 19 10 9 6 7 19 17 20 27 34 45 52 53 52 50 51 47 46 45 53 59 56 52 54 54 51 49 49 50 47 46 47 50 52 52 51 52 52 53 55 56 56 55
16 14 8 12 4 3 15 23 30 28 25 33 41 46 45 48 65 54 51 48 44 38 42 44 44 45 44 54 61 61 59 56 52 52 54 52 50 49 49 51 54 55 55 56 59 59 57 60 58
11 11 14 4 4 6 19 28 32 48 37 44 49 53 58 63 70 61 63 58 58 56 58 49 48 47 47 46 55 65 67 60 56 52 50 50 50 49 50 53 55 57 57 56 59 62 62 65 66
8 11 9 11 6 5 23 34 36 53 56 56 61 66 61 55 56 55 57 58 55 51 50 57 61 56 53 51 46 46 51 53 49 47 45 45 46 46 48 50 52 56 55 54 57 62 64 64 65
24 23 15 14 8 18 18 31 32 21 27 30 47 52 45 45 48 44 45 50 55 55 51 51 52 55 57 59 57 49 45 43 41 40 42 45 46 45 44 45 47 50 53 54 52 55 58 60 62
21 12 16 16 9 10 9 14 13 20 28 32 39 34 28 28 39 42 38 32 34 43 47 52 53 55 54 58 65 58 48 41 39 40 43 45 48 46 45 46 47 51 53 58 57 55 57 56 57
8 12 13 13 12 13 10 11 6 8 19 25 11 0 10 13 15 21 22 25 30 42 39 38 39 42 45 48 57 58 54 50 47 47 47 50 53 56 54 53 52 53 55 56 58 60 61 62 63
18 16 10 5 5 12 14 14 7 12 9 2 6 8 10 23 12 5 9 10 14 19 22 23 27 31 30 31 37 44 47 47 47 48 47 45 46 47 49 47 48 51 54 58 58 59 61 64 66
21 18 3 6 9 11 5 14 13 22 18 14 15 15 18 18 11 2 8 12 14 17 18 18 15 14 14 17 22 26 30 30 29 28 28 29 32 34 38 40 42 46 49 51 53 55 57 61 65
30 19 8 11 9 4 6 14 7 16 14 15 14 23 25 13 17 11 12 16 19 19 18 17 15 12 12 12 12 13 14 17 20 23 26 29 33 36 39 42 44 45 46 46 48 53 61 61 64
25 18 4 4 2 6 9 9 23 19 17 17 15 15 12 20 24 23 22 22 22 20 18 15 14 12 11 11 11 11 12 14 17 21 25 29 33 37 40 42 46 48 51 50 49 53 57 57 59
13 21 9 7 9 11 10 10 15 9 13 1 6 10 7 19 29 32 30 27 22 20 18 15 12 9 8 7 8 10 13 16 19 22 25 30 33 37 40 41 43 46 48 50 53 55 55 57 60
14 13 10 8 12 5 8 4 7 11 4 5 3 10 14 14 31 37 34 29 24 22 18 11 5 2 3 4 6 9 13 17 20 23 26 29 33 35 38 40 41 42 43 45 49 51 52 53 57
30 20 28 10 9 13 14 17 10 13 16 9 21 14 19 15 24 39 40 35 32 28 21 13 3 5 9 12 14 17 19 20 21 23 26 29 32 34 36 37 39 41 42 42 44 47 48 49 48
Wind_Direction_850mb
355 358 28 175 224 109 116 144 52 148 170 137 131 204 348 19 347 36 155 162 159 157 160 159 159 155 159 163 154 160 170 172 176 168 171 168 149 150 137 144 123 104 105 101 93 90 83 81 85
353 360 72 150 256 162 109 147 177 135 97 125 123 132 170 77 63 135 151 159 163 161 159 159 154 152 155 166 166 163 163 166 140 169 169 171 157 152 141 163 136 122 105 97 107 101 76 80 82
349 360 7 60 78 91 117 180 147 140 147 146 144 70 77 81 121 148 165 164 167 168 166 164 160 158 156 167 170 169 161 169 147 141 161 161 167 162 147 158 135 124 105 98 96 104 74 80 82
348 5 60 23 90 60 48 150 150 146 198 241 196 129 89 140 138 156 163 168 170 175 174 169 171 170 167 169 176 175 178 167 171 135 153 176 166 161 164 151 144 137 135 110 97 100 88 88 80
355 21 88 99 85 73 73 135 156 160 157 168 197 128 122 152 152 149 168 171 176 178 183 180 178 183 180 179 186 189 180 166 183 195 201 168 182 167 159 161 162 153 152 150 119 96 84 83 77
352 317 160 147 113 94 120 155 167 174 159 167 222 142 120 160 159 165 171 180 184 183 187 192 188 186 187 189 183 191 199 198 174 191 218 207 169 181 178 185 203 188 184 190 176 130 97 71 65
67 327 109 136 133 148 143 160 184 179 168 164 184 175 139 172 170 177 173 177 187 193 197 200 202 204 196 197 207 203 200 209 206 192 209 215 198 212 212 204 216 238 220 219 226 215 222 235 272
136 191 154 170 171 151 158 172 179 185 169 192 175 153 142 182 187 179 182 182 186 193 201 206 210 211 209 214 215 215 216 220 220 209 218 229 228 224 232 223 221 233 250 241 246 252 249 247 252
151 209 192 176 178 157 163 182 180 182 160 181 198 189 177 187 185 185 184 188 193 198 204 208 211 213 215 220 225 226 223 225 227 221 233 243 236 240 243 254 240 238 242 249 251 254 261 263 263
214 222 207 171 179 171 174 189 165 178 188 203 200 214 213 190 192 196 196 197 201 204 205 211 214 215 218 222 227 231 234 235 231 224 232 242 244 245 244 253 265 258 254 249 251 254 257 264 269
186 232 176 164 187 157 160 180 179 197 204 212 213 197 211 197 196 204 209 214 217 218 218 219 220 220 223 227 231 235 239 241 243 240 238 244 248 252 252 256 264 266 268 270 269 268 266 262 264
197 194 179 129 146 178 173 163 198 213 207 209 210 198 210 202 206 209 213 216 218 222 226 231 229 228 231 234 236 241 243 245 247 249 248 249 252 255 256 259 263 264 267 271 268 266 273 277 270
214 155 193 141 178 156 186 202 243 241 223 213 209 212 208 207 208 213 223 226 227 229 231 235 239 238 240 242 243 245 249 251 252 251 251 252 255 257 258 260 262 265 267 269 271 272 272 274 273
131 179 151 256 226 254 249 223 241 237 223 220 214 207 213 219 223 227 227 233 241 246 248 246 247 246 245 247 250 253 255 257 257 256 257 257 257 260 260 261 262 263 266 269 273 273 274 274 274
110 163 170 229 223 247 205 239 239 246 240 227 237 236 235 241 237 236 238 241 246 253 257 257 256 255 255 255 253 253 257 260 262 262 260 259 259 260 261 263 264 266 268 268 268 271 273 272 272
167 296 233 158 200 219 198 251 190 210 238 249 247 248 253 246 245 247 243 245 250 257 259 261 260 259 259 259 259 257 255 257 260 262 262 259 261 262 263 264 266 268 268 269 269 270 272 274 275
201 223 223 250 189 180 210 244 222 88 222 251 249 251 261 265 256 253 253 254 258 258 256 257 257 256 257 258 260 260 256 254 256 260 262 262 261 262 264 268 269 268 269 270 270 271 271 272 273
194 211 224 227 102 220 238 248 270 269 267 270 273 272 269 268 262 261 262 261 258 257 249 248 250 255 260 253 251 253 255 258 256 255 258 262 264 263 264 267 270 269 268 269 270 270 270 273 274
166 188 209 227 20 317 263 270 270 273 275 273 269 264 264 261 264 266 263 263 263 258 252 251 249 251 253 257 254 251 254 259 259 256 257 262 267 270 268 267 268 269 270 272 273 274 273 274 276
160 158 204 268 282 267 283 276 270 270 267 263 265 264 260 266 267 266 266 261 257 256 254 248 249 247 249 252 257 256 256 257 258 257 260 263 265 267 267 270 271 273 274 272 272 274 275 276 274
218 229 227 261 280 266 290 270 256 254 253 252 255 260 263 261 268 272 270 265 256 252 253 250 247 246 250 250 248 247 246 247 248 253 261 267 272 273 270 270 270 272 273 274 273 272 273 273 276
218 213 223 245 280 267 359 294 247 275 279 258 260 263 271 274 272 274 270 265 251 243 243 246 247 244 246 248 240 237 242 248 254 256 261 266 269 272 272 273 273 272 272 272 274 274 273 272 270
208 186 199 222 243 294 203 246 275 250 261 267 287 332 57 1 274 252 266 257 242 231 242 238 234 236 243 248 240 237 241 244 248 255 260 264 269 272 274 273 272 271 271 272 272 273 272 273 272
147 138 127 182 238 251 224 226 205 217 214 107 124 122 348 346 340 267 224 217 206 200 207 213 217 229 238 240 237 237 240 245 253 261 267 271 275 277 278 277 275 274 273 273 274 274 273 273 273
179 168 155 218 209 256 123 216 288 254 242 257 302 308 313 307 298 258 148 150 156 162 169 176 182 196 204 213 221 228 235 242 251 261 269 273 277 280 283 283 281 279 277 274 274 274 272 273 273
191 186 214 234 218 295 158 238 256 286 306 268 278 288 289 274 235 220 175 165 164 164 166 167 167 175 177 183 192 205 221 239 255 266 275 281 285 287 287 287 287 285 282 279 277 272 267 268 272
181 212 108 93 126 272 218 241 282 274 276 265 280 298 278 234 217 211 201 188 185 180 178 177 182 188 195 206 217 231 246 258 270 278 284 287 288 290 290 291 290 289 289 287 280 275 278 276 274
194 160 185 220 227 239 229 249 236 176 157 89 67 19 279 232 222 214 209 204 194 184 177 174 175 187 201 216 240 258 268 273 279 285 289 293 295 298 298 297 295 292 289 287 285 281 274 271 271
170 185 209 222 220 268 306 248 212 251 261 115 37 15 357 277 228 217 213 209 199 189 177 165 162 199 250 263 273 286 294 297 301 304 306 308 308 305 302 301 299 297 294 291 286 283 282 273 268
216 217 205 207 190 236 271 251 172 189 158 309 277 254 321 301 237 216 215 211 206 198 186 171 190 274 284 289 292 294 297 300 302 305 309 311 310 310 310 309 307 304 300 296 290 286 281 275 277